CASSIOPE

Last updated on Sat Jul 05 2025 00:03:30 GMT+0000 (Coordinated Universal Time)

1 39265U 13055A 25185.53145597 .00022687 -79279-6 34827-3 0 9992 2 39265 80.9407 120.1857 0388986 132.0527 231.4494 14.98763874615131
UTC large
Height (km)
Speed (km/s)
/
Latitude / Longitude
Inclination (degrees)
Orbital Period (minutes)
Azimuth
Elevation
Range (km)
Doppler Factor

Next 0 passes for location: London (51.5072 / 0.1276)

Sorry there are no passes over London.